Location: Cluny
(50.9333°N, 112.8167°W)
Time: 13:17:57
(UTC-06:00)

Hamsat - Visible Passes

Search period start: 20 June 2018 00:00
Search period end: 30 June 2018 00:00
Orbit: 585 x 617 km, 97.7° (Epoch: 19 June)

Date Brightness Start Highest point End Pass type
(mag) Time Alt. Az. Time Alt. Az. Time Alt. Az.
20 Jun ? 03:58:38 10° ENE 04:00:36 13° E 04:02:34 10° ESE visible
21 Jun ? 04:09:27 10° NE 04:12:12 16° E 04:14:57 10° SE visible
22 Jun ? 04:20:31 10° NE 04:23:48 21° E 04:27:04 10° SE visible
23 Jun ? 04:31:43 10° NE 04:35:22 26° E 04:39:00 10° SSE visible
28 Jun ? 03:54:51 10° ENE 03:56:32 12° E 03:58:12 10° ESE visible
29 Jun ? 04:05:34 10° NE 04:08:08 15° E 04:10:43 10° SE visible
